Location: Bijele Vode
(45.2833°N, 16.2000°E)
Time: 21:22:53
(UTC+00:00)

Cosmos 1125 Rocket - Pass Details

Date: 23 January 2021
Orbit: 757 x 780 km, 74.0° (Epoch: 08 March)

Event Time Altitude Azimuth Distance (km) Brightness Sun altitude
Exits shadow 04:04:44 - 352° (N) 2,799 6.3 -24.5°
Reaches altitude 10° 04:06:10 10° 0° (N) 2,336 6.0 -24.2°
Maximum altitude 04:10:33 26° 56° (NE) 1,513 5.5 -23.4°
Drops below altitude 10° 04:14:56 10° 112° (ESE) 2,332 7.0 -22.7°
Sets 04:17:42 0° 125° (SE) 3,256 7.8 -22.2°
